Home   Weather   Medina   Past weeks
Flag for Saudi Arabia

Past Weather in Medina, Saudi Arabia — August 2017

Now
79 °F

Clear.


Feels Like: 79 °F
Forecast: 92 / 69 °F
Wind: 16 mph from Northeast

Location: Madinah

Current Time: Nov 12, 2019 at 1:29:28 am

Latest Report: Nov 12, 2019 at 12:00 am


Visibility: 10 mi

Pressure: 29.95 "Hg (27.95 "Hg at 606m altitude)

Humidity: 32%

Dew Point: 46 °F

Location of MedinaLocation

August 2017 Weather in Medina — Graph

°F

High & Low Weather Summary for August 2017

 TemperatureHumidityPressure
High117 °F (Aug 9, 4:00 pm)40% (Aug 18, 2:00 am)29.92 "Hg (Aug 18, 2:00 am)
Low86 °F (Aug 17, 5:00 am)1% (Aug 8, 3:00 pm)29.65 "Hg (Aug 11, 5:00 pm)
Average104 °F10%29.78 "Hg
* Reported Aug 1 12:00 am — Aug 31 11:00 pm, Medina. Weather by CustomWeather, © 2019

Note: Actual official high and low records may vary slightly from our data, if they occured in-between our weather recording intervals... More about our weather records

Advertising

Medina Weather History for August 1, 2017

Scroll right to see more
 ConditionsComfort  
Time TempWeatherWind HumidityBarometerVisibility
12:00 am
Tue, Aug 1
97 °FPassing clouds.13 mph27%29.83 "Hg5 mi
1:00 am97 °FPassing clouds.6 mph25%29.83 "Hg5 mi
2:00 am97 °FPassing clouds.6 mph22%29.83 "Hg6 mi
3:00 am99 °FPassing clouds.8 mph22%29.83 "Hg6 mi
4:00 am95 °FPassing clouds.9 mph25%29.83 "Hg6 mi
5:00 am97 °FPassing clouds.13 mph23%29.80 "Hg6 mi
6:00 am95 °FPassing clouds.6 mph23%29.83 "Hg5 mi
7:00 am93 °FSunny.8 mph26%29.86 "Hg4 mi
8:00 am95 °FSunny.13 mph26%29.89 "Hg5 mi
9:00 am97 °FSunny.13 mph27%29.89 "Hg5 mi
10:00 am102 °FClear.9 mph21%29.89 "Hg5 mi
11:00 am106 °FClear.9 mph17%29.89 "Hg4 mi
12:00 pm106 °FClear.13 mph15%29.86 "Hg4 mi
1:00 pm108 °FClear.13 mph14%29.86 "Hg4 mi
2:00 pm111 °FPassing clouds.13 mph10%29.83 "Hg4 mi
3:00 pm113 °FClear.12 mph9%29.80 "Hg6 mi
4:00 pm104 °FScattered clouds.23 mph14%29.83 "Hg2 mi
4:19 pm99 °FThunderstorms. Partly sunny.17 mph24%29.89 "Hg3 mi
5:00 pm99 °FPartly sunny.15 mph22%29.83 "Hg6 mi
6:00 pm97 °FPartly sunny.17 mph20%29.86 "HgN/A
7:00 pm100 °FPartly sunny.12 mph13%29.89 "HgN/A
9:00 pm100 °FPassing clouds.15 mph14%29.86 "HgN/A
10:00 pm99 °FPassing clouds.6 mph17%29.89 "HgN/A
11:00 pm99 °FClear.12 mph16%29.89 "Hg10 mi
Weather by CustomWeather, © 2019

See weather overview